CZ-3B DEB, 42474

Orbit data source: Space-Track

CZ-3B DEB, 42474 is space debris in HEO originally from a launch on Mon, 19 Dec 2011 UTC launched from the Xichang Space Center, China (XSC). Debris objects in space refer to the collection of defunct objects orbiting the Earth. Examples of debris include non-operational satellites, rocket bodies, and fragments generated from explosions, collisions, or faulty payload assembly.

Loading next visibility...
Identifier
42474, 2011-077AP
Orbit
HEO
Country
Flag of CNCN / PRC
Related business
Manufacturer
CALT
Mission
Spacecraft
Bus & Motor
Unknown
Mass
Unknown
Launch date (UTC)
2011-12-19 (14 years ago)
Launch vehicle
Unknown
Launch site
Xichang Space Center, China (XSC)
Object type
Payload
Rocket body
Debris
Shape & HBR
Unknown shape, 0.2 m
Radar Cross Section
Medium (>0.1 m² and <1 m²)

Expand to show TLE details & history
Last TLE update: 23 hours ago

TLE from 23 hours ago
0 CZ-3B DEB
1 42474U 11077AP  25312.14446506 -.00000023  00000-0  00000+0 0  9995
2 42474  22.1071 127.0700 7171092   4.3268 359.4704  1.66956784 65154
Epoch: 2025-11-08T03:28Z
TLE epoch observation values (Epoch: 2025-11-08T03:28:01.781Z)
Latitude
0.00043°
Longitude
27.46291°
Altitude
2,157.051 km
Speed
8.951 km/s
True Right ascension
08h 28m 11s
True Declination
0° 00' 02"
Sunlit
Object was in daylight at epoch
Visualization orbit readout
Latitude
Unknown
Longitude
Unknown
Altitude
Unknown
Speed
Unknown
Apparent Right ascension
Unknown
Apparent Declination
Unknown
Sunlit
N/A
Visualization observer readout
Local Sidereal Time
22:13:26
Azimuth
Unknown
Elevation
Unknown
Doppler factor
Unknown
Orbital elements
Apogee altitude
45,166.09 km
Perigee altitude
2,113.686 km
Semi-major axis
30,018.025 km
Eccentricity
0.71711
Inclination
22.1071°
RAAN
127.07°
Arg. of periapsis
4.3268°
True anomaly
355.39184°
Mean anomaly
359.4704°
Eccentric anomaly
358.12874°
Mean motion
0.41732 °/min
Orbital period
862.65 mins
BSTAR
0
Loading maneuver chart data...
Computing Atmospheric mass density...
Loading historical data...
Loading historical data...
Loading historical data...
Loading historical data...
Loading historical data...
Loading historical data...
Loading historical data...

Documentation

Showing up to 5 results
|